Hourly Weather Rufisque

Today, 20 April, Tuesday

Time Temperature Precipitation Wind Pressure Humidity
00:00 +23°C° 0 mm 6 mps 757 mmHg 73%
01:00 +22°C° 0 mm 6 mps 757 mmHg 74%
02:00 +22°C° 0 mm 6 mps 756 mmHg 75%
03:00 +22°C° 0 mm 6 mps 756 mmHg 77%
04:00 +22°C° 0 mm 6 mps 756 mmHg 79%
05:00 +21°C° 0 mm 6 mps 756 mmHg 81%
06:00 +22°C° 0 mm 7 mps 757 mmHg 75%
07:00 +23°C° 0 mm 7 mps 757 mmHg 69%
08:00 +24°C° 0 mm 7 mps 757 mmHg 63%
09:00 +27°C° 0 mm 7 mps 757 mmHg 58%
10:00 +28°C° 0 mm 7 mps 757 mmHg 53%
11:00 +29°C° 0 mm 7 mps 757 mmHg 47%
12:00 +29°C° 0 mm 7 mps 757 mmHg 48%
13:00 +29°C° 0 mm 7 mps 756 mmHg 48%
14:00 +29°C° 0 mm 7 mps 756 mmHg 48%
15:00 +28°C° 0 mm 7 mps 756 mmHg 53%
16:00 +27°C° 0 mm 6 mps 756 mmHg 57%
17:00 +26°C° 0 mm 6 mps 756 mmHg 61%
18:00 +24°C° 0 mm 6 mps 756 mmHg 67%
19:00 +23°C° 0 mm 5 mps 757 mmHg 74%
20:00 +22°C° 0 mm 5 mps 757 mmHg 81%
21:00 +22°C° 0 mm 5 mps 757 mmHg 83%
22:00 +22°C° 0 mm 5 mps 757 mmHg 85%
23:00 +21°C° 0 mm 5 mps 757 mmHg 86%

Tomorrow, 21 April, Wednesday

Time Temperature Precipitation Wind Pressure Humidity
00:00 +21°C° 0 mm 6 mps 757 mmHg 87%
01:00 +21°C° 0 mm 6 mps 756 mmHg 88%
02:00 +21°C° 0 mm 6 mps 756 mmHg 89%
03:00 +21°C° 0 mm 7 mps 756 mmHg 89%
04:00 +21°C° 0 mm 7 mps 756 mmHg 89%
05:00 +21°C° 0 mm 7 mps 756 mmHg 89%
06:00 +22°C° 0 mm 7 mps 757 mmHg 83%
07:00 +22°C° 0 mm 7 mps 757 mmHg 76%
08:00 +23°C° 0 mm 7 mps 758 mmHg 70%
09:00 +24°C° 0 mm 7 mps 758 mmHg 65%
10:00 +26°C° 0 mm 7 mps 758 mmHg 59%
11:00 +28°C° 0 mm 7 mps 758 mmHg 54%
12:00 +28°C° 0 mm 7 mps 757 mmHg 53%
13:00 +28°C° 0 mm 6 mps 757 mmHg 52%
14:00 +28°C° 0 mm 6 mps 756 mmHg 51%
15:00 +27°C° 0 mm 6 mps 756 mmHg 55%
16:00 +27°C° 0 mm 6 mps 756 mmHg 59%
17:00 +26°C° 0 mm 6 mps 756 mmHg 63%
18:00 +25°C° 0 mm 5 mps 757 mmHg 70%
19:00 +23°C° 0 mm 5 mps 757 mmHg 77%
20:00 +22°C° 0 mm 4 mps 757 mmHg 84%
21:00 +21°C° 0 mm 4 mps 758 mmHg 85%
22:00 +21°C° 0 mm 4 mps 758 mmHg 86%
23:00 +21°C° 0 mm 5 mps 758 mmHg 88%

Day after tomorrow, 22 April, Thursday

Time Temperature Precipitation Wind Pressure Humidity
00:00 +21°C° 0 mm 5 mps 758 mmHg 88%
01:00 +21°C° 0 mm 5 mps 757 mmHg 89%
02:00 +21°C° 0 mm 5 mps 757 mmHg 89%
03:00 +20°C° 0 mm 5 mps 757 mmHg 89%
04:00 +20°C° 0 mm 5 mps 757 mmHg 89%
05:00 +20°C° 0 mm 5 mps 757 mmHg 89%
06:00 +21°C° 0 mm 5 mps 758 mmHg 83%
07:00 +22°C° 0 mm 5 mps 758 mmHg 77%
08:00 +23°C° 0 mm 5 mps 759 mmHg 71%
09:00 +25°C° 0 mm 5 mps 759 mmHg 66%
10:00 +26°C° 0 mm 6 mps 759 mmHg 61%
11:00 +27°C° 0 mm 6 mps 758 mmHg 56%
12:00 +28°C° 0 mm 6 mps 758 mmHg 55%
13:00 +28°C° 0 mm 6 mps 757 mmHg 54%
14:00 +28°C° 0 mm 6 mps 757 mmHg 54%
15:00 +27°C° 0 mm 6 mps 757 mmHg 58%
16:00 +26°C° 0 mm 6 mps 756 mmHg 62%
17:00 +26°C° 0 mm 6 mps 756 mmHg 65%
18:00 +24°C° 0 mm 6 mps 757 mmHg 71%
19:00 +23°C° 0 mm 5 mps 757 mmHg 77%
20:00 +22°C° 0 mm 5 mps 758 mmHg 83%
21:00 +22°C° 0 mm 5 mps 758 mmHg 84%
22:00 +21°C° 0 mm 5 mps 758 mmHg 85%
23:00 +21°C° 0 mm 5 mps 758 mmHg 87%

23 April, Friday

Time Temperature Precipitation Wind Pressure Humidity
00:00 +21°C° 0 mm 5 mps 758 mmHg 87%
01:00 +21°C° 0 mm 5 mps 757 mmHg 88%
02:00 +21°C° 0 mm 5 mps 757 mmHg 89%
03:00 +21°C° 0 mm 5 mps 757 mmHg 89%
04:00 +20°C° 0 mm 5 mps 757 mmHg 89%
05:00 +20°C° 0 mm 5 mps 757 mmHg 89%
06:00 +21°C° 0 mm 5 mps 757 mmHg 82%
07:00 +22°C° 0 mm 5 mps 758 mmHg 74%
08:00 +23°C° 0 mm 6 mps 758 mmHg 67%
09:00 +26°C° 0 mm 6 mps 758 mmHg 61%
10:00 +27°C° 0 mm 6 mps 758 mmHg 55%
11:00 +28°C° 0 mm 6 mps 758 mmHg 49%
12:00 +28°C° 0 mm 6 mps 758 mmHg 49%
13:00 +28°C° 0 mm 6 mps 757 mmHg 50%
14:00 +29°C° 0 mm 6 mps 757 mmHg 50%
15:00 +28°C° 0 mm 6 mps 757 mmHg 55%
16:00 +27°C° 0 mm 6 mps 756 mmHg 59%
17:00 +26°C° 0 mm 6 mps 756 mmHg 64%
18:00 +24°C° 0 mm 6 mps 757 mmHg 71%
19:00 +23°C° 0 mm 6 mps 757 mmHg 78%
20:00 +22°C° 0 mm 6 mps 757 mmHg 85%
21:00 +22°C° 0 mm 6 mps 757 mmHg 85%
22:00 +21°C° 0 mm 6 mps 757 mmHg 86%
23:00 +21°C° 0 mm 6 mps 757 mmHg 86%

24 April, Saturday

Time Temperature Precipitation Wind Pressure Humidity
00:00 +21°C° 0 mm 6 mps 757 mmHg 87%
01:00 +21°C° 0 mm 6 mps 757 mmHg 88%
02:00 +21°C° 0 mm 6 mps 756 mmHg 88%
03:00 +21°C° 0 mm 6 mps 756 mmHg 89%
04:00 +20°C° 0 mm 5 mps 756 mmHg 89%
05:00 +20°C° 0 mm 5 mps 756 mmHg 90%
06:00 +21°C° 0 mm 5 mps 757 mmHg 83%
07:00 +22°C° 0 mm 5 mps 757 mmHg 76%
08:00 +23°C° 0 mm 5 mps 758 mmHg 69%
09:00 +25°C° 0 mm 5 mps 758 mmHg 63%
10:00 +27°C° 0 mm 6 mps 758 mmHg 58%
11:00 +28°C° 0 mm 6 mps 758 mmHg 52%
12:00 +28°C° 0 mm 6 mps 757 mmHg 53%
13:00 +28°C° 0 mm 6 mps 757 mmHg 53%
14:00 +28°C° 0 mm 7 mps 757 mmHg 54%
15:00 +27°C° 0 mm 7 mps 757 mmHg 58%
16:00 +26°C° 0 mm 7 mps 756 mmHg 63%
17:00 +24°C° 0 mm 7 mps 756 mmHg 67%
18:00 +23°C° 0 mm 6 mps 757 mmHg 73%
19:00 +22°C° 0 mm 6 mps 757 mmHg 79%
20:00 +22°C° 0 mm 6 mps 757 mmHg 85%
21:00 +21°C° 0 mm 6 mps 757 mmHg 86%
22:00 +21°C° 0 mm 6 mps 758 mmHg 87%
23:00 +21°C° 0 mm 5 mps 758 mmHg 88%

25 April, Sunday

Time Temperature Precipitation Wind Pressure Humidity
00:00 +21°C° 0 mm 6 mps 757 mmHg 89%
01:00 +21°C° 0 mm 6 mps 757 mmHg 90%
02:00 +21°C° 0 mm 6 mps 756 mmHg 90%
03:00 +21°C° 0 mm 6 mps 756 mmHg 91%
04:00 +21°C° 0 mm 6 mps 757 mmHg 91%
05:00 +21°C° 0 mm 6 mps 757 mmHg 91%
06:00 +21°C° 0 mm 7 mps 757 mmHg 86%
07:00 +22°C° 0 mm 7 mps 758 mmHg 80%
08:00 +23°C° 0 mm 7 mps 758 mmHg 75%
09:00 +24°C° 0 mm 7 mps 758 mmHg 69%
10:00 +26°C° 0 mm 7 mps 758 mmHg 63%
11:00 +27°C° 0 mm 7 mps 758 mmHg 58%
12:00 +27°C° 0 mm 7 mps 758 mmHg 57%
13:00 +28°C° 0 mm 7 mps 757 mmHg 56%
14:00 +28°C° 0 mm 7 mps 757 mmHg 55%
15:00 +27°C° 0 mm 7 mps 757 mmHg 59%
16:00 +26°C° 0 mm 7 mps 757 mmHg 63%
17:00 +24°C° 0 mm 7 mps 757 mmHg 67%
18:00 +23°C° 0 mm 7 mps 757 mmHg 72%
19:00 +22°C° 0 mm 7 mps 757 mmHg 78%
20:00 +21°C° 0 mm 6 mps 758 mmHg 83%
21:00 +21°C° 0 mm 6 mps 758 mmHg 83%
22:00 +21°C° 0 mm 6 mps 758 mmHg 84%
23:00 +21°C° 0 mm 6 mps 758 mmHg 84%
Show more